国际通讯卫星 1-F1星 (INTELSAT 1-F1)

导读

INTELSAT 1-F1(晨鸟号)是国际通信卫星组织(ITSO)于1965年4月6日发射的全球首颗商用地球同步通信卫星,定点西经28°。由休斯公司研制,起飞质量68千克,采用自旋稳定,设计寿命18个月,实际工作4年。它开创了商用卫星通信新纪元,首次实现欧美跨洋直播通信,为后续全球卫星通信体系奠定了基础。

Basic Information
目录编号:
1317
目录名称:
INTELSAT 1-F1
国际标识:
1965-028A
轨道中心:
EARTH
卫星名称:
国际通讯卫星 1-F1星
卫星全名:
国际通讯卫星 1-F1星 (INTELSAT 1-F1)
卫星状态:
在轨 (已飞行22348 天)
发射日期:
1965-04-06 UTC
国别 :
(ITSO)
星等 :
--
Orbit Information
数据来源 国际轨道数据 AOE轨道数据
星历时间 2026-06-12T13:46:29+0800
21小时前
查看轨道信息
2026-06-10T18:00:00+0800
2天前
查看轨道信息
半长轴 42189.247km 42189.191km
偏心率 0.0005683 0.0005824
轨道倾角 7.145° 7.141°
近地点辐角 144.408° 145.320°
升交点赤经 63.784° 63.801°
平近点角 16.452° 77.684°
近地点 35787.133km 35786.483km
远地点 35835.087km 35835.625km
周期 1437.350分钟 1437.347分钟
每日圈数 1.001844 1.001846
Detailed Information
卫星平台:
HS-303A
平衡模式:
自旋稳定
覆盖范围:
全球
运营商:
国际卫星通信公司
运营商所在国:
美国
制造商(研发单位):
休斯公司
制造商所在国:
美国
使用方式:
暂无
Satellite Introduction
从1965年4月至1984年3月,国际通信卫星组织发射了5代、6种不同性能的卫星共计35颗,除6颗卫星因运载火箭和远地点发动机故障而发射失败外,其余29颗卫星均被送到了预定的静止轨道位置。1984年8月前后,国际通信卫星组织利用部署在大西洋、太平洋、印度洋上空的15颗国际通信卫星,为遍布世界各地170多个国家或地区提供电话、电传、电报、电视和数据传输等电信业务;该卫星已退役。
2D Orbit Map
3D Orbit Map
Orbit Altitude Analysis Chart
Orbit Inclination Analysis Chart
Orbit Comprehensive Analysis Chart
View Comprehensive Chart